Flight Track Log - Related Links

Times and Time Zones

All times are in EST time to prevent confusion due to time zone crossing. See the N1944E flight status page for this flight to view local times or setup timezone preferences in your user account.

Time Position Orientation Groundspeed Altitude Reporting Facility
EST Latitude Longitude Course Direction KTS MPH feet Rate Location/Type
Sun 02:05:50 PM 44.4692 -109.1211 231° Southwest 91 105 6,600  Level Salt Lake Center
Sun 02:06:52 PM 44.4511 -109.1575 235° Southwest 112 129 7,400 1,024 Climbing Salt Lake Center
Sun 02:07:53 PM 44.4331 -109.1933 235° Southwest 113 130 8,700 1,073 Climbing Salt Lake Center
Sun 02:08:55 PM 44.4114 -109.2347 234° Southwest 111 128 9,600 871 Climbing Salt Lake Center
Sun 02:09:57 PM 44.3911 -109.2717 232° Southwest 114 131 10,500 823 Climbing Salt Lake Center
Sun 02:10:59 PM 44.3694 -109.3111 232° Southwest 121 139 11,300 732 Climbing Salt Lake Center
Sun 02:11:00 PM 44.3543 -109.3430 231° Southwest  Level Estimated
Sun 02:12:00 PM 44.3517 -109.3550 240° Southwest 126 145 12,000  Level Salt Lake Center
Sun 02:13:02 PM 44.3283 -109.3972 232° Southwest 134 154 12,900 1,016 Climbing Salt Lake Center
Sun 02:14:04 PM 44.3042 -109.4375 230° Southwest 135 155 14,100 1,512 Climbing Salt Lake Center
Sun 02:15:05 PM 44.2811 -109.4878 237° Southwest 131 151 16,000 878 Climbing Salt Lake Center
Sun 02:16:07 PM 44.2586 -109.5364 237° Southwest 147 169 15,900 -48 Descending Salt Lake Center
Sun 02:17:09 PM 44.2281 -109.5847 229° Southwest 165 190 15,900 48 Level Salt Lake Center
Sun 02:18:11 PM 44.1992 -109.6358 232° Southwest 155 178 16,000 -98 Climbing Salt Lake Center
Sun 02:19:12 PM 44.1781 -109.6842 239° Southwest 153 176 15,700 -146 Descending Salt Lake Center
Sun 02:20:14 PM 44.1467 -109.7381 231° Southwest 157 181 15,700  Level Salt Lake Center
Sun 02:21:16 PM 44.1214 -109.7817 231° Southwest 154 177 15,700  Level Salt Lake Center
Sun 02:22:17 PM 44.0961 -109.8361 237° Southwest 151 174 15,700 -49 Level Salt Lake Center
Sun 02:23:19 PM 44.0742 -109.8789 234° Southwest 145 167 15,600  Descending Salt Lake Center
Sun 02:24:21 PM 44.0503 -109.9278 236° Southwest 153 176 15,700  Climbing Salt Lake Center
Sun 02:25:22 PM 44.0236 -109.9819 236° Southwest 152 175 15,600 -293 Descending Salt Lake Center
Sun 02:26:24 PM 43.9961 -110.0297 231° Southwest 159 183 15,100 -683 Descending Salt Lake Center
Sun 02:27:25 PM 43.9611 -110.0947 233° Southwest 179 206 14,200 -885 Descending Salt Lake Center

Login

Don't have an account? Register now (free) for customized features, flight alerts, and more!